sat.trackr.live / text

‹ back to catalog

STARLINK-4391

NORAD 53189 · 2022-084A

PAYLOAD ACTIVE UNKNOWN

§ Identity

Operator
Country
US
Launch date
2022-07-22
Launch site
AFWTR
Launch vehicle
Mass (kg)
RCS (m²)

Purposes: comms

External: N2YO · Heavens-Above · Gunter

§ Orbital elements

Epoch: 2026-05-25T02:48:56.383200Z

Period
95.64 min
Inclination
97.4487°
Eccentricity
0.0001643
Mean motion
15.05656626 rev/d
Perigee alt
548.4 km
Apogee alt
550.6 km
Semi-major
6,927.6 km
B*
1.9654e-5
RAAN
206.1405°
Arg perigee
111.6783°
Mean anomaly
248.4619°
Rev number
21,155

§ Raw data

STARLINK-43911 53189U 22084A   26145.11731925  .00000225  00000+0  19654-4 0  99962 53189  97.4487 206.1405 0001643 111.6783 248.4619 15.05656626211556

JSON: /api/v1/satellites/53189 · /tle

For live sub-satellite position, see the globe view (requires WebGL).

§ Visibility from observer

Set your observer location to see the next 7 days of passes ≥ 10°. The values pass through the URL so the page stays shareable.

No JS? Fill the form by hand. The geolocation button needs JavaScript.